Weather History for Pampa / Mesa Vista, TX

Change the Weather History Date:

Saturday, January 26, 2013

  Actual Average (KBGD) Record (KBGD)
Temperature  
Mean Temperature 46 °F 40 °F  
Max Temperature 62 °F 53 °F 80 °F (1951)
Min Temperature 30 °F 27 °F 4 °F (1966)
Degree Days  
Heating Degree Days 19 25  
Month to date heating degree days 691  
Since 1 July heating degree days 2228  
Cooling Degree Days 0 0  
Month to date cooling degree days 0  
Year to date cooling degree days 0  
Moisture  
Dew Point 30 °F    
Average Humidity 59    
Maximum Humidity 87    
Minimum Humidity 31    
Precipitation  
Precipitation 0.00 in 0.02 in 0.22 in (1994)
Month to date precipitation 0.46  
Year to date precipitation 0.46  
Snow  
Snow 0.00 in - 3.50 in (2001)
Month to date snowfall  
Since 1 July snowfall  
Snow Depth -    
Sea Level Pressure  
Sea Level Pressure 30.04 in    
Wind  
Wind Speed 8 mph (South)    
Max Wind Speed 28 mph    
Max Gust Speed 37 mph    
Visibility 10 miles    
Events      
T = Trace of Precipitation, MM = Missing Value Source: NWS Daily Summary

Daily Weather History Graph

Daily Weather History Graph

Search for Another Location

Airport:

Trip Planner

Search our weather history database for the weather conditions in past years. The results will help you decide how hot, cold, wet, or windy it might be!

Date:

Astronomy

Jan. 26, 2013 Rise Set
Actual Time 7:48 AM CST 6:05 PM CST
Civil Twilight 7:21 AM CST 6:32 PM CST
Nautical Twilight 6:50 AM CST 7:03 PM CST
Astronomical Twilight 6:20 AM CST 7:33 PM CST
Moon 6:00 PM CST (1/26) 7:08 AM CST (1/26)
Length of Visible Light 11h 11m
Length of Day
10h 16m
Full, 100% of the Moon is Illuminated
Jan 26
Full
Jan 26
Full
Feb 3
Last Quarter
Feb 10
New
Feb 17
First Quarter

Hourly Weather History & Observations

Time (CST) Temp. Windchill Dew Point Humidity Pressure Visibility Wind Dir Wind Speed Gust Speed Precip Events Conditions
12:15 AM 35.6 °F 28.6 °F 26.6 °F 70% 30.17 in 10.0 mi SE 9.2 mph - N/A   Clear
12:35 AM 35.6 °F 29.9 °F 28.4 °F 75% 30.17 in 10.0 mi SSE 6.9 mph - N/A   Clear
12:55 AM 35.6 °F 29.2 °F 28.4 °F 75% 30.16 in 10.0 mi SSE 8.1 mph - N/A   Clear
1:15 AM 35.6 °F 30.7 °F 28.4 °F 75% 30.16 in 10.0 mi SSE 5.8 mph - N/A   Clear
1:35 AM 32.0 °F - 26.6 °F 80% 30.16 in 10.0 mi Calm Calm - N/A   Clear
1:55 AM 33.8 °F 30.8 °F 28.4 °F 81% 30.16 in 10.0 mi SW 3.5 mph - N/A   Clear
2:15 AM 33.8 °F 29.6 °F 26.6 °F 75% 30.15 in 10.0 mi South 4.6 mph - N/A   Clear
2:35 AM 33.8 °F 30.8 °F 26.6 °F 75% 30.15 in 10.0 mi SSE 3.5 mph - N/A   Clear
2:55 AM 33.8 °F - 26.6 °F 75% 30.15 in 10.0 mi Calm Calm - N/A   Clear
3:15 AM 33.8 °F - 26.6 °F 75% 30.15 in 10.0 mi Calm Calm - N/A   Clear
3:35 AM 33.8 °F - 26.6 °F 75% 30.14 in 10.0 mi Calm Calm - N/A   Clear
4:15 AM 32.0 °F - 26.6 °F 80% 30.13 in 10.0 mi Calm Calm - N/A   Clear
4:35 AM 32.0 °F 28.7 °F 26.6 °F 80% 30.12 in 10.0 mi ENE 3.5 mph - N/A   Clear
5:15 AM 32.0 °F - 26.6 °F 80% 30.11 in 10.0 mi Calm Calm - N/A   Clear
5:35 AM 32.0 °F - 28.4 °F 87% 30.11 in 10.0 mi Calm Calm - N/A   Clear
5:55 AM 30.2 °F - 26.6 °F 86% 30.11 in 10.0 mi Calm Calm - N/A   Clear
6:15 AM 30.2 °F 24.3 °F 26.6 °F 86% 30.12 in 10.0 mi SW 5.8 mph - N/A   Clear
6:35 AM 32.0 °F 28.7 °F 26.6 °F 80% 30.12 in 10.0 mi WSW 3.5 mph - N/A   Clear
6:55 AM 30.2 °F - 26.6 °F 86% 30.11 in 10.0 mi Calm Calm - N/A   Clear
7:15 AM 32.0 °F - 26.6 °F 80% 30.12 in 10.0 mi Calm Calm - N/A   Clear
7:35 AM 30.2 °F - 26.6 °F 86% 30.11 in 10.0 mi Calm Calm - N/A   Clear
7:55 AM 30.2 °F - 26.6 °F 86% 30.12 in 10.0 mi Calm Calm - N/A   Clear
8:15 AM 30.2 °F - 26.6 °F 86% 30.12 in 7.0 mi Calm Calm - N/A   Clear
8:35 AM 30.2 °F 26.7 °F 26.6 °F 86% 30.12 in 10.0 mi WSW 3.5 mph - N/A   Clear
8:55 AM 32.0 °F - 28.4 °F 87% 30.13 in 7.0 mi Calm Calm - N/A   Clear
9:15 AM 33.8 °F - 30.2 °F 87% 30.12 in 7.0 mi Calm Calm - N/A   Clear
9:35 AM 35.6 °F - 30.2 °F 81% 30.12 in 10.0 mi Calm Calm - N/A   Clear
9:55 AM 37.4 °F - 30.2 °F 75% 30.11 in 10.0 mi Calm Calm - N/A   Clear
10:15 AM 41.0 °F - 32.0 °F 70% 30.11 in 10.0 mi Calm Calm - N/A   Clear
10:35 AM 41.0 °F - 32.0 °F 70% 30.10 in 10.0 mi Calm Calm - N/A   Clear
10:55 AM 48.2 °F - 30.2 °F 50% 30.09 in 10.0 mi South 8.1 mph - N/A   Clear
11:15 AM 51.8 °F - 30.2 °F 44% 30.08 in 10.0 mi South 5.8 mph - N/A   Clear
11:35 AM 53.6 °F - 28.4 °F 38% 30.07 in 10.0 mi South 9.2 mph - N/A   Clear
11:55 AM 55.4 °F - 28.4 °F 36% 30.06 in 10.0 mi SSW 12.7 mph - N/A   Clear
12:15 PM 59.0 °F - 28.4 °F 31% 30.05 in 10.0 mi SSW 13.8 mph - N/A   Clear
12:35 PM 59.0 °F - 30.2 °F 34% 30.04 in 10.0 mi SSW 13.8 mph 17.3 mph N/A   Scattered Clouds
12:55 PM 59.0 °F - 30.2 °F 34% 30.03 in 10.0 mi South 15.0 mph - N/A   Clear
1:15 PM 55.4 °F - 30.2 °F 38% 30.03 in 10.0 mi South 15.0 mph 18.4 mph N/A   Scattered Clouds
1:35 PM 57.2 °F - 30.2 °F 36% 30.01 in 10.0 mi South 12.7 mph - N/A   Mostly Cloudy
1:55 PM 59.0 °F - 30.2 °F 34% 30.00 in 10.0 mi South 9.2 mph - N/A   Overcast
2:15 PM 60.8 °F - 32.0 °F 34% 29.98 in 10.0 mi South 15.0 mph 20.7 mph N/A   Overcast
2:35 PM 60.8 °F - 32.0 °F 34% 29.98 in 10.0 mi SSW 10.4 mph - N/A   Overcast
2:55 PM 62.6 °F - 32.0 °F 32% 29.97 in 10.0 mi SSW 17.3 mph 24.2 mph N/A   Overcast
3:15 PM 62.6 °F - 32.0 °F 32% 29.97 in 10.0 mi South 15.0 mph 19.6 mph N/A   Overcast
3:35 PM 60.8 °F - 32.0 °F 34% 29.96 in 10.0 mi South 15.0 mph - N/A   Mostly Cloudy
3:55 PM 60.8 °F - 32.0 °F 34% 29.95 in 10.0 mi South 15.0 mph - N/A   Mostly Cloudy
4:15 PM 60.8 °F - 32.0 °F 34% 29.95 in 10.0 mi South 17.3 mph 21.9 mph N/A   Mostly Cloudy
4:35 PM 60.8 °F - 32.0 °F 34% 29.96 in 10.0 mi South 18.4 mph 23.0 mph N/A   Mostly Cloudy
5:15 PM 59.0 °F - 32.0 °F 36% 29.95 in 10.0 mi South 11.5 mph 23.0 mph N/A   Scattered Clouds
5:35 PM 57.2 °F - 32.0 °F 38% 29.94 in 10.0 mi South 15.0 mph - N/A   Scattered Clouds
6:15 PM 55.4 °F - 32.0 °F 41% 29.94 in 10.0 mi South 10.4 mph 20.7 mph N/A   Mostly Cloudy
6:35 PM 53.6 °F - 32.0 °F 44% 29.94 in 10.0 mi SSE 9.2 mph - N/A   Mostly Cloudy
6:55 PM 51.8 °F - 32.0 °F 47% 29.94 in 10.0 mi South 13.8 mph 17.3 mph N/A   Mostly Cloudy
7:15 PM 51.8 °F - 32.0 °F 47% 29.94 in 10.0 mi South 9.2 mph - N/A   Scattered Clouds
7:35 PM 51.8 °F - 32.0 °F 47% 29.95 in 10.0 mi South 10.4 mph 16.1 mph N/A   Mostly Cloudy
7:55 PM 51.8 °F - 32.0 °F 47% 29.92 in 10.0 mi South 19.6 mph 24.2 mph N/A   Scattered Clouds
8:15 PM 51.8 °F - 32.0 °F 47% 29.91 in 10.0 mi South 20.7 mph 29.9 mph N/A   Clear
8:35 PM 51.8 °F - 32.0 °F 47% 29.90 in 10.0 mi South 24.2 mph 31.1 mph N/A   Clear
8:55 PM 51.8 °F - 32.0 °F 47% 29.90 in 10.0 mi South 25.3 mph 31.1 mph N/A   Clear
9:15 PM 50.0 °F - 33.8 °F 54% 29.89 in 10.0 mi SSE 27.6 mph 35.7 mph N/A   Scattered Clouds
9:35 PM 50.0 °F - 33.8 °F 54% 29.89 in 10.0 mi SSE 27.6 mph 33.4 mph N/A   Clear
9:55 PM 50.0 °F - 33.8 °F 54% 29.89 in 10.0 mi South 21.9 mph 32.2 mph N/A   Clear
10:15 PM 50.0 °F - 33.8 °F 54% 29.91 in 10.0 mi South 18.4 mph 28.8 mph N/A   Clear
10:35 PM 50.0 °F - 33.8 °F 54% 29.91 in 10.0 mi South 12.7 mph 24.2 mph N/A   Clear
10:55 PM 50.0 °F - 35.6 °F 58% 29.90 in 10.0 mi South 21.9 mph 28.8 mph N/A   Scattered Clouds
11:15 PM 51.8 °F - 35.6 °F 54% 29.90 in 10.0 mi South 23.0 mph 29.9 mph N/A   Mostly Cloudy
11:35 PM 51.8 °F - 35.6 °F 54% 29.90 in 10.0 mi South 23.0 mph 35.7 mph N/A   Overcast
11:55 PM 50.0 °F - 35.6 °F 58% 29.89 in 10.0 mi South 26.5 mph 36.8 mph N/A   Scattered Clouds